Change the Weather History Date:

Wednesday, March 19, 2014

  Actual Average Record
Temperature  
Mean Temperature 48 °F -  
Max Temperature 54 °F 54 °F 64 °F (1998)
Min Temperature 39 °F 40 °F 27 °F (1965)
Degree Days  
Heating Degree Days 18    
Moisture  
Dew Point 40 °F    
Average Humidity 74    
Maximum Humidity 83    
Minimum Humidity 61    
Precipitation  
Precipitation 0.00 in - - ()
Sea Level Pressure  
Sea Level Pressure 30.09 in    
Wind  
Wind Speed 9 mph (SSE)    
Max Wind Speed 16 mph    
Max Gust Speed 31 mph    
Visibility 10 miles    
Events Rain    
Averages and records for this station are not official NWS values.
T = Trace of Precipitation, MM = Missing Value Source: NWS Daily Summary

Daily Weather History Graph

Daily Weather History Graph

Search for Another Location

Airport or City:

Trip Planner

Search our weather history database for the weather conditions in past years. The results will help you decide how hot, cold, wet, or windy it might be!

Date:

Astronomy

Mar. 19, 2014 Rise Set
Actual Time 7:13 AM PDT 7:20 PM PDT
Civil Twilight 6:43 AM PDT 7:51 PM PDT
Nautical Twilight 6:07 AM PDT 8:27 PM PDT
Astronomical Twilight 5:30 AM PDT 9:04 PM PDT
Moon 11:00 PM PDT (3/19) 8:30 AM PDT (3/19)
Length of Visible Light 13h 08m
Length of Day
12h 06m
Waning Gibbous, 90% of the Moon is Illuminated
Mar 19
Waning Gibbous
Mar 23
Last Quarter
Mar 30
New
Apr 7
First Quarter
Apr 15
Full

Hourly Weather History & Observations

Time (PDT) Temp. Windchill Dew Point Humidity Pressure Visibility Wind Dir Wind Speed Gust Speed Precip Events Conditions
12:53 AM 48.9 °F - 43.0 °F 80% 30.16 in 10.0 mi SSE 5.8 mph - N/A   Overcast
1:53 AM 48.9 °F - 43.0 °F 80% 30.14 in 10.0 mi SE 8.1 mph - N/A   Mostly Cloudy
2:53 AM 48.0 °F - 43.0 °F 83% 30.13 in 10.0 mi SSE 6.9 mph - N/A   Overcast
3:37 AM 48.2 °F - 42.8 °F 82% 30.12 in 10.0 mi SSE 5.8 mph - N/A   Overcast
3:49 AM 48.2 °F - 42.8 °F 82% 30.11 in 10.0 mi SSE 6.9 mph - N/A   Overcast
3:53 AM 48.9 °F - 43.0 °F 80% 30.11 in 10.0 mi South 6.9 mph - N/A   Overcast
4:53 AM 48.0 °F - 43.0 °F 83% 30.09 in 10.0 mi SSE 9.2 mph - N/A   Mostly Cloudy
5:53 AM 48.0 °F - 42.1 °F 80% 30.08 in 10.0 mi South 9.2 mph - 0.00 in Rain Light Rain
6:53 AM 48.0 °F - 42.1 °F 80% 30.07 in 10.0 mi Variable 6.9 mph 16.1 mph 0.00 in Rain Light Rain
7:53 AM 46.9 °F - 41.0 °F 80% 30.05 in 10.0 mi South 10.4 mph 19.6 mph 0.00 in   Overcast
8:53 AM 48.0 °F - 41.0 °F 77% 30.05 in 10.0 mi SSE 8.1 mph - 0.00 in   Mostly Cloudy
9:53 AM 50.0 °F - 41.0 °F 71% 30.04 in 10.0 mi South 10.4 mph 21.9 mph N/A   Mostly Cloudy
10:53 AM 50.0 °F - 41.0 °F 71% 30.04 in 10.0 mi South 12.7 mph 19.6 mph N/A   Overcast
11:53 AM 50.0 °F - 42.1 °F 74% 30.04 in 10.0 mi South 13.8 mph 23.0 mph N/A   Mostly Cloudy
12:00 PM 51.8 °F - 42.8 °F 71% 30.04 in 10.0 mi South 9.2 mph 23.0 mph N/A   Overcast
12:07 PM 51.8 °F - 42.8 °F 71% 30.04 in 10.0 mi South 13.8 mph 23.0 mph N/A   Overcast
12:53 PM 51.1 °F - 43.0 °F 74% 30.04 in 10.0 mi South 16.1 mph 31.1 mph N/A   Overcast
1:00 PM 51.8 °F - 42.8 °F 71% 30.03 in 10.0 mi South 15.0 mph 23.0 mph N/A   Overcast
1:07 PM 51.8 °F - 42.8 °F 71% 30.03 in 10.0 mi South 15.0 mph 29.9 mph N/A   Overcast
1:53 PM 51.1 °F - 39.9 °F 66% 30.02 in 10.0 mi SSW 15.0 mph 23.0 mph N/A   Scattered Clouds
2:53 PM 53.1 °F - 39.9 °F 61% 30.03 in 10.0 mi SSW 9.2 mph 24.2 mph N/A   Scattered Clouds
3:53 PM 46.0 °F 39.6 °F 37.0 °F 71% 30.04 in 10.0 mi NE 15.0 mph 21.9 mph N/A   Mostly Cloudy
4:53 PM 46.9 °F - 36.0 °F 66% 30.07 in 10.0 mi ENE 13.8 mph 18.4 mph N/A   Mostly Cloudy
5:53 PM 46.0 °F 41.9 °F 36.0 °F 68% 30.09 in 10.0 mi ENE 8.1 mph 23.0 mph N/A   Mostly Cloudy
6:53 PM 44.1 °F 38.6 °F 35.1 °F 71% 30.11 in 10.0 mi ENE 10.4 mph 19.6 mph N/A   Scattered Clouds
7:53 PM 44.1 °F 39.5 °F 34.0 °F 68% 30.14 in 10.0 mi East 8.1 mph - N/A   Mostly Cloudy
8:53 PM 43.0 °F 38.8 °F 34.0 °F 71% 30.16 in 10.0 mi East 6.9 mph 17.3 mph N/A   Overcast
9:53 PM 42.1 °F 39.2 °F 34.0 °F 73% 30.18 in 10.0 mi NE 4.6 mph - N/A   Mostly Cloudy
10:53 PM 42.1 °F - 33.1 °F 70% 30.20 in 10.0 mi Calm Calm - N/A   Partly Cloudy
11:53 PM 39.0 °F 34.0 °F 32.0 °F 76% 30.22 in 10.0 mi SSE 6.9 mph - N/A   Partly Cloudy